[[{"header":{"parameterUnit":"m.s-1","parameterCategory":1,"la1":30.2991,"la2":30.254,"lo1":-89.0895,"lo2":-89.0444,"dy":0.0017,"dx":0.0017,"nx":28,"ny":28,"refTime":"2024-06-20T03:00:00:Z","depth":0,"parameterNumber":2,"parameterNumberName":"U-component_of_WINDS"},"data":[0,0,0,0,0,0,0,0,0,0,0,0,0,0,0,0,0,0,0,0,0,0,0,0,0,0,0,0,0,0,0,0,0,0,0,0,0,0,0,0,0,0,0,0,0,0,0,0,0,0,0,0,0,0,0,0,0,0,-6.2013,-6.2013,0,-6.2005,-6.2004,-6.2004,-6.1737,-6.173,-6.1723,-6.1716,-6.1713,-6.1719,-6.1725,0,0,0,0,0,0,0,0,0,0,0,0,0,-6.1802,-6.1807,-6.2013,-6.2013,-6.2013,-6.2005,-6.2004,-6.2004,-6.1738,-6.173,-6.1721,-6.1713,-6.171,-6.1718,-6.1726,0,0,0,0,0,0,0,0,0,0,0,0,0,-6.1854,-6.1809,-6.2013,-6.1879,-6.1867,-6.2005,-6.2004,-6.2004,-6.174,-6.1729,-6.1719,-6.1709,-6.1708,-6.1717,-6.1727,-6.1994,0,0,-6.1756,-6.176,0,0,0,0,0,0,0,0,-6.1851,-6.1862,-6.1899,-6.1889,-6.1875,-6.1861,-6.1928,-6.2001,-6.1742,-6.1788,-6.1716,-6.1704,-6.1771,-6.1774,-6.1796,-6.1994,-6.1993,-6.1757,-6.1762,-6.1767,-6.1769,0,0,0,0,0,0,0,-6.1848,-6.1861,-6.201,-6.19,-6.1885,-6.182,-6.1816,-6.1941,-6.1838,-6.1783,-6.1764,-6.1766,-6.1762,-6.1787,-6.1794,-6.1993,-6.1756,-6.1765,-6.1771,-6.1774,-6.2407,-6.2418,0,0,0,0,0,0,-6.1863,-6.186,-6.201,-6.2009,-6.1837,-6.1832,-6.1828,-6.1876,-6.1836,-6.182,-6.1775,-6.1754,-6.1776,-6.1783,-6.1793,-6.21,-6.1766,-6.1775,-6.1781,-6.2396,-6.2409,-6.2421,0,0,0,0,0,0,-6.1859,-6.1878,-6.201,-6.1929,-6.1941,-6.1847,-6.1904,-6.1882,-6.1906,-6.183,-6.181,-6.182,-6.1768,-6.1779,-6.1945,-6.2096,-6.178,-6.1788,-6.2383,-6.24,-6.2416,-6.272,0,0,0,0,0,0,-6.1854,-6.1879,-6.1979,-6.1934,-6.1946,-6.2163,-6.1913,-6.1889,-6.1923,-6.1895,-6.1866,-6.1851,-6.1761,-6.1932,-6.1954,-6.2104,-6.1796,-6.2369,-6.2391,-6.241,-6.2696,-6.2745,-6.2787,0,0,0,0,0,-6.1847,-6.2067,-6.1985,-6.2005,-6.2069,-6.2172,-6.2179,-6.2069,-6.1936,-6.2036,-6.1986,-6.1852,-6.2077,-6.1951,-6.1974,-6.2129,-6.2359,-6.2385,-6.2409,-6.2675,-6.2735,-6.2786,0,0,0,0,0,0,-6.2134,-6.2058,-6.1967,-6.2178,-6.2183,-6.2127,-6.2249,-6.2137,-6.2181,-6.2154,-6.2016,-6.2012,-6.2199,-6.218,-6.2042,-6.2384,-6.2194,-6.2225,-6.2389,-6.2445,-6.249,-6.249,-6.1804,0,0,0,0,0,-6.2222,-6.231,-6.2239,-6.2432,-6.2439,-6.2345,-6.2386,-6.23,-6.2301,-6.2302,-6.2265,-6.2272,-6.2343,-6.2393,-6.2455,-6.2692,-6.2681,-6.281,-6.2856,-6.2893,-6.2921,-6.3043,-6.3099,-6.2503,-6.2503,-6.2503,0,0,-6.2404,-6.2373,-6.2438,-6.2489,-6.2483,-6.2578,-6.2349,-6.246,-6.2529,-6.2319,-6.2472,-6.2446,-6.2444,-6.2646,-6.2734,-6.2636,-6.3083,-6.2925,-6.2956,-6.2963,-6.3074,-6.3131,-6.3181,-6.252,-6.2517,-6.2515,0,0,-6.2783,-6.277,-6.2927,-6.2926,-6.2919,-6.2854,-6.2893,-6.2853,-6.2826,-6.2977,-6.2821,-6.2903,-6.303,-6.3034,-6.3053,-6.3434,-6.3312,-6.3458,-6.3696,-6.3816,-6.3863,-6.3904,-6.4038,-6.4088,-6.3487,-6.3488,-6.3488,0,-6.3011,-6.3147,-6.3024,-6.3144,-6.3171,-6.2983,-6.3142,-6.3147,-6.3162,-6.3185,-6.3076,-6.3229,-6.3216,-6.3415,-6.3508,-6.353,-6.3569,-6.346,-6.3866,-6.3906,-6.3942,-6.4068,-6.4119,-6.3505,-6.3503,-6.3501,-6.35,0,-6.3426,-6.3523,-6.3651,-6.3667,-6.3709,-6.3849,-6.3747,-6.3804,-6.3715,-6.3663,-6.3818,-6.3795,-6.3848,-6.3889,-6.3805,-6.4077,-6.4016,-6.389,-6.3695,-6.4019,-6.4135,-6.4182,-6.353,-6.3524,-6.3519,-6.3514,0,0,-6.3985,-6.393,-6.3979,-6.3983,-6.3962,-6.4035,-6.4166,-6.4215,-6.4266,-6.4284,-6.4389,-6.45,-6.4382,-6.4404,-6.4318,-6.4425,-6.4725,-6.4283,-6.4281,-6.4365,-6.5022,-6.5116,-6.5174,-6.4645,-6.4653,-6.466,-6.5021,0,-6.435,-6.4568,-6.4461,-6.4693,-6.478,-6.4603,-6.4717,-6.4717,-6.4672,-6.4739,-6.4689,-6.4769,-6.4608,-6.4619,-6.4717,-6.4668,-6.4855,-6.4641,-6.4742,-6.4747,-6.4745,-6.5235,-6.5335,-6.5677,-6.5066,-6.5074,-6.5079,0,-6.4805,-6.4838,-6.5078,-6.5038,-6.5071,-6.5175,-6.5211,-6.5278,-6.5275,-6.5234,-6.5259,-6.5148,-6.5274,-6.5083,-6.5254,-6.5111,-6.5146,-6.5129,-6.5139,-6.5143,-6.4931,-6.525,-6.5783,-6.5834,-6.515,-6.5144,-6.5139,0,-6.5186,-6.5291,-6.5447,-6.5457,-6.5415,-6.5492,-6.5479,-6.5464,-6.5501,-6.5533,-6.5555,-6.5603,-6.5629,-6.5669,-6.5575,-6.5445,-6.5759,-6.5561,-6.5728,-6.5731,-6.5801,-6.5798,-6.6345,-6.5828,-6.5828,-6.5827,-6.5826,0,-6.5603,-6.5757,-6.5617,-6.5714,-6.588,-6.5756,-6.5925,-6.5892,-6.5881,-6.5968,-6.582,-6.5905,-6.5776,-6.5849,-6.5776,-6.5928,-6.5942,-6.5912,-6.5891,-6.5924,-6.5928,-6.5944,-6.5917,-6.584,-6.5837,-6.5834,-6.5832,0,-6.6056,-6.5969,-6.6127,-6.6074,-6.6065,-6.619,-6.6144,-6.6232,-6.6176,-6.6288,-6.6307,-6.622,-6.6298,-6.6208,-6.628,-6.623,-6.6436,-6.6381,-6.6437,-6.642,-6.6592,-6.6577,-6.7168,-6.7238,-6.6679,-6.6684,-6.6689,0,-6.6327,-6.644,-6.6399,-6.6445,-6.644,-6.6518,-6.6553,-6.6436,-6.6479,-6.6483,-6.657,-6.6635,-6.668,-6.6813,-6.6757,-6.6811,-6.6754,-6.6958,-6.6761,-6.6791,-6.6754,-6.6748,-6.6758,-6.6997,-6.7004,-6.7009,-6.7014,0,-6.6816,-6.6767,-6.6822,-6.6864,-6.691,-6.6938,-6.6954,-6.7001,-6.6879,-6.6935,-6.7012,-6.7047,-6.7119,-6.7185,-6.7223,-6.7209,-6.7093,-6.7077,-6.7117,-6.7152,-6.7179,-6.7164,-6.6544,-6.7063,-6.7058,-6.7054,-6.7052,-6.705,-6.7183,-6.7275,-6.7259,-6.7326,-6.7326,-6.7345,-6.7423,-6.7376,-6.7437,-6.7485,-6.7413,-6.7509,-6.7501,-6.7539,-6.754,-6.7613,-6.7526,-6.7587,-6.7601,-6.7618,-6.7642,-6.7169,-6.762,-6.7619,-6.7617,-6.7616,-6.7615,0,-6.7662,-6.7643,-6.7706,-6.7732,-6.7785,-6.7669,-6.7681,-6.7733,-6.7819,-6.7821,-6.7868,-6.7956,-6.802,-6.7969,-6.8021,-6.809,-6.8038,-6.8108,-6.8101,-6.8099,-6.7718,-6.7676,-6.815,-6.8149,-6.8149,-6.8149,-6.8149,-6.8149,-6.7917,-6.8065,-6.8015,-6.8161,-6.8141,-6.8232,-6.8249,-6.8265,-6.8265,-6.837,-6.8421,-6.8387,-6.8368,-6.8418,-6.8471,-6.8454,-6.848,-6.8569,-6.8534,-6.8179,-6.8126,-6.8076,-6.8035,-6.8577,-6.8577,-6.8907,-6.8911,-6.8913]},{"header":{"parameterUnit":"m.s-1","parameterCategory":1,"la1":30.2991,"la2":30.254,"lo1":-89.0895,"lo2":-89.0444,"dy":0.0017,"dx":0.0017,"nx":28,"ny":28,"refTime":"2024-06-20T03:00:00:Z","depth":0,"parameterNumber":3,"parameterNumberName":"V-component_of_WINDS"},"data":[0,0,0,0,0,0,0,0,0,0,0,0,0,0,0,0,0,0,0,0,0,0,0,0,0,0,0,0,0,0,0,0,0,0,0,0,0,0,0,0,0,0,0,0,0,0,0,0,0,0,0,0,0,0,0,0,0,0,-0.2527,-0.2527,0,-0.2586,-0.2587,-0.2588,-0.2694,-0.2696,-0.2698,-0.27,-0.2757,-0.2757,-0.2756,0,0,0,0,0,0,0,0,0,0,0,0,0,-0.25,-0.25,-0.2527,-0.2527,-0.2528,-0.2586,-0.2587,-0.2588,-0.2694,-0.2696,-0.2699,-0.2701,-0.2757,-0.2757,-0.2756,0,0,0,0,0,0,0,0,0,0,0,0,0,-0.253,-0.25,-0.2527,-0.2588,-0.2594,-0.2586,-0.2587,-0.2588,-0.2693,-0.2696,-0.2699,-0.2702,-0.2757,-0.2757,-0.2756,-0.2691,0,0,-0.2754,-0.2754,0,0,0,0,0,0,0,0,-0.2528,-0.2531,-0.2578,-0.2584,-0.2591,-0.2636,-0.2598,-0.2622,-0.2692,-0.2655,-0.27,-0.2704,-0.2714,-0.2717,-0.2721,-0.2694,-0.2696,-0.2754,-0.2754,-0.2754,-0.2753,0,0,0,0,0,0,0,-0.2526,-0.2529,-0.255,-0.2579,-0.2586,-0.2611,-0.2619,-0.2603,-0.2667,-0.2659,-0.2667,-0.2673,-0.2718,-0.2722,-0.2724,-0.2697,-0.2754,-0.2754,-0.2753,-0.2753,-0.2616,-0.2613,0,0,0,0,0,0,-0.2516,-0.2527,-0.2548,-0.2552,-0.2567,-0.2609,-0.2618,-0.2618,-0.2667,-0.2678,-0.267,-0.2677,-0.2721,-0.2724,-0.2726,-0.2651,-0.2754,-0.2753,-0.2753,-0.262,-0.2616,-0.2612,0,0,0,0,0,0,-0.2515,-0.2517,-0.2546,-0.2542,-0.2547,-0.2606,-0.2606,-0.2618,-0.2622,-0.2676,-0.2687,-0.2663,-0.2724,-0.2727,-0.2699,-0.2655,-0.2753,-0.2752,-0.2624,-0.2619,-0.2614,-0.2502,0,0,0,0,0,0,-0.2514,-0.2516,-0.2493,-0.254,-0.2547,-0.2519,-0.2603,-0.2617,-0.2621,-0.2631,-0.2672,-0.2681,-0.2726,-0.2699,-0.2698,-0.2656,-0.2752,-0.2628,-0.2621,-0.2616,-0.251,-0.2494,-0.248,0,0,0,0,0,-0.2512,-0.2459,-0.2491,-0.2493,-0.252,-0.2516,-0.252,-0.2574,-0.2617,-0.2594,-0.2628,-0.268,-0.266,-0.2695,-0.2695,-0.2652,-0.2631,-0.2623,-0.2616,-0.2517,-0.2497,-0.2481,0,0,0,0,0,0,-0.2404,-0.2466,-0.2503,-0.2464,-0.2484,-0.2534,-0.2507,-0.2552,-0.256,-0.2569,-0.2635,-0.2643,-0.2605,-0.2626,-0.2664,-0.259,-0.2653,-0.2646,-0.2578,-0.256,-0.2545,-0.254,-0.2751,0,0,0,0,0,-0.2376,-0.2369,-0.2423,-0.2383,-0.2391,-0.2447,-0.2447,-0.2487,-0.251,-0.2519,-0.2551,-0.257,-0.2568,-0.2566,-0.2567,-0.2514,-0.2523,-0.2484,-0.2469,-0.2457,-0.2448,-0.2419,-0.2402,-0.2588,-0.2588,-0.2588,0,0,-0.2317,-0.235,-0.2341,-0.2362,-0.2382,-0.2372,-0.2453,-0.2439,-0.2431,-0.2517,-0.2492,-0.2516,-0.2541,-0.25,-0.2483,-0.2516,-0.2399,-0.2447,-0.2437,-0.2436,-0.241,-0.2392,-0.2376,-0.2583,-0.2584,-0.2585,0,0,-0.2204,-0.2229,-0.2197,-0.2216,-0.2246,-0.2283,-0.2275,-0.2318,-0.2338,-0.2314,-0.2377,-0.2368,-0.2364,-0.2379,-0.2386,-0.2276,-0.2323,-0.2274,-0.2196,-0.2167,-0.2152,-0.2139,-0.2098,-0.2082,-0.2267,-0.2266,-0.2266,0,-0.2126,-0.2114,-0.2175,-0.2156,-0.2162,-0.224,-0.2207,-0.2221,-0.2249,-0.2251,-0.2288,-0.2283,-0.2306,-0.2267,-0.224,-0.2244,-0.2235,-0.2269,-0.215,-0.2137,-0.2126,-0.2087,-0.2072,-0.226,-0.2261,-0.2261,-0.2262,0,-0.2016,-0.2006,-0.1977,-0.2003,-0.2006,-0.198,-0.2034,-0.203,-0.2069,-0.2101,-0.2074,-0.2105,-0.2112,-0.2106,-0.2145,-0.2072,-0.2092,-0.2138,-0.2202,-0.2101,-0.2065,-0.2051,-0.2251,-0.2253,-0.2255,-0.2257,0,0,-0.1836,-0.1895,-0.1883,-0.1895,-0.1933,-0.1926,-0.1902,-0.191,-0.1904,-0.192,-0.19,-0.1894,-0.1937,-0.1944,-0.1985,-0.1959,-0.1867,-0.2009,-0.201,-0.1979,-0.1786,-0.1749,-0.1731,-0.1899,-0.1897,-0.1895,-0.1783,0,-0.1729,-0.1694,-0.1747,-0.1698,-0.1689,-0.1762,-0.1741,-0.176,-0.179,-0.1784,-0.1816,-0.181,-0.1868,-0.1873,-0.1851,-0.1883,-0.1829,-0.1892,-0.1879,-0.1878,-0.1868,-0.1713,-0.1675,-0.1568,-0.177,-0.1768,-0.1766,0,-0.16,-0.1611,-0.1561,-0.16,-0.1598,-0.1579,-0.1589,-0.1584,-0.1607,-0.163,-0.1637,-0.1685,-0.1663,-0.1726,-0.1694,-0.1736,-0.1734,-0.1748,-0.1746,-0.1745,-0.1814,-0.1706,-0.1536,-0.1519,-0.1745,-0.1747,-0.1748,0,-0.1471,-0.1472,-0.1442,-0.145,-0.1496,-0.148,-0.1498,-0.1524,-0.1525,-0.1534,-0.1534,-0.154,-0.1542,-0.1545,-0.1592,-0.1634,-0.1553,-0.1621,-0.1569,-0.1567,-0.1547,-0.1547,-0.1372,-0.1549,-0.1549,-0.155,-0.155,0,-0.1345,-0.1311,-0.1385,-0.1366,-0.1329,-0.139,-0.1351,-0.1376,-0.1399,-0.1384,-0.1448,-0.1433,-0.1497,-0.1488,-0.1525,-0.1492,-0.1493,-0.1509,-0.1519,-0.1502,-0.1499,-0.15,-0.1508,-0.1545,-0.1546,-0.1547,-0.1548,0,-0.1193,-0.1242,-0.1213,-0.1259,-0.1269,-0.124,-0.1278,-0.1261,-0.1294,-0.1275,-0.1274,-0.1325,-0.1318,-0.1366,-0.1367,-0.1392,-0.1339,-0.1363,-0.1331,-0.1338,-0.1282,-0.1285,-0.1099,-0.1076,-0.127,-0.1268,-0.1266,0,-0.1109,-0.1085,-0.1127,-0.1122,-0.1137,-0.1129,-0.113,-0.1188,-0.1186,-0.121,-0.1189,-0.1187,-0.1189,-0.1173,-0.1209,-0.121,-0.1233,-0.1167,-0.1233,-0.1216,-0.1229,-0.1228,-0.1225,-0.1153,-0.115,-0.1148,-0.1147,0,-0.0953,-0.0977,-0.0977,-0.0984,-0.0984,-0.0992,-0.1004,-0.0996,-0.1059,-0.1053,-0.1047,-0.1048,-0.1049,-0.1045,-0.1053,-0.107,-0.1117,-0.1126,-0.1113,-0.1095,-0.1077,-0.1083,-0.1291,-0.1129,-0.1131,-0.1132,-0.1133,-0.1134,-0.0831,-0.0811,-0.0838,-0.0834,-0.085,-0.0859,-0.0845,-0.0876,-0.0872,-0.0878,-0.0913,-0.0899,-0.0921,-0.0936,-0.0948,-0.0937,-0.0968,-0.095,-0.0946,-0.094,-0.0928,-0.108,-0.0939,-0.0939,-0.094,-0.094,-0.0941,0,-0.0676,-0.0696,-0.0692,-0.0707,-0.0704,-0.0751,-0.0766,-0.076,-0.0747,-0.0764,-0.0764,-0.0755,-0.0751,-0.0787,-0.0787,-0.0771,-0.0793,-0.0769,-0.077,-0.0772,-0.0902,-0.0912,-0.0751,-0.0751,-0.0751,-0.0752,-0.0752,-0.0752,-0.0594,-0.0563,-0.0591,-0.0567,-0.0587,-0.0575,-0.058,-0.0588,-0.0601,-0.0589,-0.0586,-0.061,-0.0633,-0.0635,-0.0633,-0.0644,-0.0639,-0.0607,-0.0625,-0.0745,-0.0763,-0.0781,-0.079,-0.0607,-0.0607,-0.0496,-0.0495,-0.0494]}]]